STARLINK-35233

Satellite information

Favourite Embed

Satellite Type and Status

PAYLOADIN ORBIT

Key statistics

Satellite STARLINK-35233 at a glance.

Uptime

29

Days in orbit

Revolutions

≈ 15.3

Per day

Orbit

LEO

Low Earth Orbit

Inclination

53.2

Latest

Satellite identification and parameters

Extended collection of information and parameters for STARLINK-35233.

Object identification

Identified? True

Debris? False

Object name: STARLINK-35233

International designator: 2025-212C

Object number (NORAD): 65678

Object ID (CCSDS): 65678

Country: UNITED STATES OF AMERICA (US)

Current information (Y/N): Y

Orbital parameters

Period: 93.963 minutes

Inclination: 53.1604 deg

SMA: 6846.455 km

Apoapsis: 469.229 km

Periapsis: 467.411 km

RAAN: 279.4647 deg

Eccentricy: 0.00013276

Argument of periapsis: 111.0191 deg

Mean anomaly: 85.4669 deg

Mean motion: 15.32512791 rev/day

Mean motion (dot): -0.0225179 rev/day2

B* drag term: -0.079177158 1/REarth

Two-line elements (TLE)

Creation date: Oct. 20, 2025, 2:10 a.m.

Reference frame: TEME

Reference center: EARTH

Epoch: Oct. 20, 2025, midnight UTC

TLE line 0: 0 STARLINK-35233

TLE line 1: 1 65678U 25212C 25293.00001157 -.02251790 00000-0 -79177-1 0 9999

TLE line 2: 2 65678 53.1604 279.4647 0001328 111.0191 85.4669 15.32512791 5795

Live tracking on map

Real-time ground track for satellite STARLINK-35233.

In-orbit conjunctions

There are no conjunctions computed for STARLINK-35233, at the moment. Check back to stay up to date, as we update our databases every day.

Go to all conjunctions

Associated space launch

A batch of 28 satellites for the Starlink mega-constellation - SpaceX's project for space-based Internet communication system.

STARLINK-35233 was lifted into orbit during the mission ‘Falcon 9 Block 5 | Starlink Group 10-27’, on board a Falcon 9 space rocket.

The launch took place on Sept. 21, 2025, 10:53 a.m. from Space Launch Complex 40.

For more information about the launch, click the button.

Launch to space Falcon 9 Block 5 | Starlink Group 10-27
Falcon 9 Block 5 | Starlink Group 10-27

Agency: SpaceX

Status: Launch Successful

Launch date: Sept. 21, 2025, 10:53 a.m. UTC

Rocket: Falcon 9

Launch pad: Space Launch Complex 40

Location: Cape Canaveral SFS, FL, USA

...

Latest news about this satellite

News about space launch
Live coverage: SpaceX to launch 28 Starlink satellites on Falcon 9 rocket from Cape Canaveral

The Starlink 10-27 mission will be the 280th orbital launch for SpaceX from Cape Canaveral Space Force Station. Liftoff from Space Launch Complex 40 is scheduled for 6:53 a.m. EDT (1053 UTC).

News about space launch
Launch Roundup: Starlink, NRO, and New Shepard missions scheduled

Another busy week of launches has arrived, with SpaceX dominating the launch manifest with four… The post Launch Roundup: Starlink, NRO, and New Shepard missions scheduled appeared first on NASASpaceFlight.com.


Newsletter sign-up

Weekly statistics, charts and insights to help you stay on top of the space industry.